This is the latest recevied weather packets stored in our database for station/object SQ7IQO. If no packets are shown the sender has not sent any weather packets the latest 10 day(s).
| Time | Temp. | Humidity | Pressure | Rain* | Wind** | Luminosity | Snow |
|---|---|---|---|---|---|---|---|
| 1787653776 | 20.56° C | 62% | 1021.9 hPa | 0 mm | 0 m/s | - | - |
| 1787653716 | 20.56° C | 64% | 1021.9 hPa | 0 mm | 0 m/s | - | - |
| 1787653656 | 20.56° C | 61% | 1022 hPa | 0 mm | 0 m/s | - | - |
| 1787653596 | 20.56° C | 62% | 1022 hPa | 0 mm | 0 m/s | - | - |
| 1787653536 | 20° C | 62% | 1022 hPa | 0 mm | 0 m/s | - | - |
| 1787653476 | 20.56° C | 61% | 1022 hPa | 0 mm | 0 m/s | - | - |
| 1787653416 | 20.56° C | 62% | 1022 hPa | 0 mm | 0 m/s | - | - |
| 1787653356 | 21.11° C | 60% | 1022 hPa | 0 mm | 0 m/s | - | - |
| 1787653297 | 21.11° C | 59% | 1022 hPa | 0 mm | 0 m/s | - | - |
| 1787653236 | 21.11° C | 59% | 1022 hPa | 0 mm | 0 m/s | - | - |
| 1787653176 | 21.11° C | 58% | 1022 hPa | 0 mm | 0.45 m/s, ° | - | - |
| 1787653116 | 21.11° C | 57% | 1022 hPa | 0 mm | 0 m/s | - | - |
| 1787653056 | 21.67° C | 56% | 1022 hPa | 0 mm | 0 m/s | - | - |
| 1787652996 | 21.67° C | 64% | 1022 hPa | 0 mm | 0 m/s | - | - |
| 1787652936 | 20.56° C | 61% | 1022 hPa | 0 mm | 0 m/s | - | - |
| 1787652876 | 20° C | 61% | 1022 hPa | 0 mm | 0 m/s | - | - |
| 1787652816 | 20° C | 63% | 1022 hPa | 0 mm | 0 m/s | - | - |
| 1787652756 | 20° C | 63% | 1022 hPa | 0 mm | 0 m/s | - | - |
| 1787652696 | 20° C | 63% | 1022.1 hPa | 0 mm | 0 m/s | - | - |
| 1787652636 | 20° C | 62% | 1022 hPa | 0 mm | 0 m/s | - | - |
| 1787652576 | 20° C | 60% | 1022.1 hPa | 0 mm | 0 m/s | - | - |
| 1787652516 | 20.56° C | 59% | 1022.1 hPa | 0 mm | 0.89 m/s, ° | - | - |
| 1787652456 | 21.11° C | 60% | 1022.1 hPa | 0 mm | 0.45 m/s, ° | - | - |
| 1787652396 | 21.67° C | 59% | 1022.1 hPa | 0 mm | 0.45 m/s, ° | - | - |
| 1787652336 | 21.11° C | 58% | 1022 hPa | 0 mm | 0 m/s | - | - |
* Rain latest hour (hover to see other rain measurements)
** Current wind speed in m/s (hover to see current wind gust speed)